Tracking 35274 objects as of 10-Sep-2026
HD Live streaming from Space Station
objects crossing your sky now

COSMOS 1408 DEB


COSMOS 1408 DEB is no longer on orbit


NORAD ID: 50949
Int'l Code: 1982-092AWU
Launch date: September 16, 1982
Source: Commonwealth of Independent States (former USSR) (CIS)
Launch site: PLESETSK MISSILE AND SPACE COMPLEX (PKMTR)
Decay date: 2022-04-25

Note: This is SATELLITE DEBRIS
Your satellite tracking list
Your tracking list is empty




NASA's NSSDC Master Catalog

Two Line Element Set (TLE):
1 50949U 82092AWU 22073.28310285  .00566254  00000-0  29033-1 0  9997
2 50949  82.9670  18.7050 0172113  46.9179 314.6304 15.02554166 11360
Source of the keplerian elements: AFSPC